Weather History for KDAL - November, 2012

Change the Weather History Date:

Tuesday, November 13, 2012

  Actual Average Record
Temperature  
Mean Temperature 46 °F -  
Max Temperature 57 °F 64 °F 82 °F (1999)
Min Temperature 34 °F 48 °F 30 °F (2013)
Degree Days  
Heating Degree Days 20    
Moisture  
Dew Point 25 °F    
Average Humidity 44    
Maximum Humidity 79    
Minimum Humidity 22    
Precipitation  
Precipitation 0.00 in - - ()
Sea Level Pressure  
Sea Level Pressure 30.44 in    
Wind  
Wind Speed 3 mph (ESE)    
Max Wind Speed 13 mph    
Max Gust Speed -    
Visibility 10 miles    
Events      
Averages and records for this station are not official NWS values.
T = Trace of Precipitation, MM = Missing Value Source: NWS Daily Summary

Daily Weather History Graph

Daily Weather History Graph

Search for Another Location

Airport or City:

Trip Planner

Search our weather history database for the weather conditions in past years. The results will help you decide how hot, cold, wet, or windy it might be!

Date:

Astronomy

Nov. 13, 2012 Rise Set
Actual Time 6:56 AM CST 5:26 PM CST
Civil Twilight 6:30 AM CST 5:52 PM CST
Nautical Twilight 6:00 AM CST 6:22 PM CST
Astronomical Twilight 5:31 AM CST 6:51 PM CST
Moon 6:35 AM CST (11/13) 5:22 PM CST (11/13)
Length of Visible Light 11h 22m
Length of Day
10h 30m
Waning Crescent, 0% of the Moon is Illuminated
Nov 13
Waning Crescent
Nov 13
New
Nov 20
First Quarter
Nov 28
Full
Dec 6
Last Quarter

Hourly Weather History & Observations

Time (CST) Temp. Windchill Dew Point Humidity Pressure Visibility Wind Dir Wind Speed Gust Speed Precip Events Conditions
12:53 AM 37.9 °F - 30.9 °F 76% 30.51 in 10.0 mi Calm Calm - N/A   Clear
1:53 AM 37.0 °F - 30.0 °F 76% 30.50 in 10.0 mi Calm Calm - N/A   Clear
2:53 AM 37.9 °F - 30.0 °F 73% 30.50 in 10.0 mi Calm Calm - N/A   Clear
3:53 AM 37.9 °F - 28.9 °F 70% 30.48 in 10.0 mi Calm Calm - N/A   Clear
4:53 AM 36.0 °F - 28.9 °F 76% 30.48 in 10.0 mi Calm Calm - N/A   Clear
5:53 AM 34.0 °F - 28.0 °F 79% 30.49 in 10.0 mi Calm Calm - N/A   Clear
6:53 AM 37.0 °F 34.5 °F 28.0 °F 70% 30.50 in 10.0 mi ENE 3.5 mph - N/A   Partly Cloudy
7:53 AM 42.1 °F - 28.0 °F 58% 30.52 in 10.0 mi Calm Calm - N/A   Partly Cloudy
8:53 AM 48.9 °F - 28.0 °F 44% 30.52 in 10.0 mi East 5.8 mph - N/A   Scattered Clouds
9:53 AM 53.1 °F - 25.0 °F 34% 30.52 in 10.0 mi SE 12.7 mph - N/A   Mostly Cloudy
10:53 AM 55.0 °F - 23.0 °F 29% 30.50 in 10.0 mi SSE 11.5 mph - N/A   Mostly Cloudy
11:53 AM 55.9 °F - 21.0 °F 26% 30.46 in 10.0 mi SSE 9.2 mph - N/A   Mostly Cloudy
12:53 PM 55.9 °F - 19.9 °F 25% 30.42 in 10.0 mi ESE 10.4 mph - N/A   Mostly Cloudy
1:53 PM 57.9 °F - 19.0 °F 22% 30.38 in 10.0 mi East 8.1 mph - N/A   Mostly Cloudy
2:53 PM 57.0 °F - 18.0 °F 22% 30.37 in 10.0 mi SSE 8.1 mph - N/A   Mostly Cloudy
3:53 PM 57.0 °F - 19.0 °F 23% 30.36 in 10.0 mi SSE 6.9 mph - N/A   Mostly Cloudy
4:53 PM 55.0 °F - 19.0 °F 24% 30.36 in 10.0 mi SSE 4.6 mph - N/A   Scattered Clouds
5:53 PM 52.0 °F - 19.9 °F 28% 30.36 in 10.0 mi SE 4.6 mph - N/A   Scattered Clouds
6:53 PM 50.0 °F - 23.0 °F 35% 30.37 in 10.0 mi ESE 6.9 mph - N/A   Mostly Cloudy
7:53 PM 53.1 °F - 23.0 °F 31% 30.37 in 10.0 mi ESE 6.9 mph - N/A   Overcast
8:53 PM 53.1 °F - 25.0 °F 34% 30.38 in 10.0 mi ESE 4.6 mph - N/A   Overcast
9:53 PM 53.1 °F - 26.1 °F 35% 30.39 in 10.0 mi East 3.5 mph - N/A   Overcast
10:53 PM 52.0 °F - 27.0 °F 38% 30.38 in 10.0 mi ESE 4.6 mph - N/A   Overcast
11:53 PM 52.0 °F - 27.0 °F 38% 30.38 in 10.0 mi East 5.8 mph - N/A   Overcast